Date String (YYYY-MM-DD hh:mm:ss) UTC,Instrument flags,Ambient pressure (hPa),Sample flow (lpm),Bypass flow (lpm),Sample temperature (°C),Ambient temperature (°C),ASC tube jacket temperature (°C),LED temperature (°C),Box temperature (°C),Sample RH (%),Span deviation,Mass concentration (μg/m³),Mass concentration (μg/m³),Mass concentration (μg/m³)
DateTimeUTC,F1_M11,P_M11,Q1_M11,Q2_M11,T1_M11,T2_M11,T3_M11,T4_M11,T5_M11,U1_M11,ZSPAN_M11,X0_M11,X2_M11,X1_M11
2023-04-27 17:00:00,,0824.7,4.98,0.00,26.4,25.0,00.0,34.7,28.0,11.5,0000.0,0005.38,0002.13,0001.35
2023-04-27 17:01:00,,0824.8,5.01,0.00,26.4,25.0,00.0,34.7,28.0,11.5,0000.0,0005.46,0002.17,0001.37
2023-04-27 17:02:00,,0824.8,5.01,0.00,26.4,25.0,00.0,34.7,28.0,11.3,0000.0,0005.44,0002.16,0001.36
2023-04-27 17:03:00,,0824.7,4.99,0.00,26.4,25.1,00.0,34.7,28.1,11.8,0000.0,0005.38,0002.14,0001.35
2023-04-27 17:04:00,,0824.7,5.00,0.00,26.5,25.1,00.0,34.7,28.1,11.5,0000.0,0005.31,0002.11,0001.34
2023-04-27 17:05:00,,0824.7,5.01,0.00,26.5,25.1,00.0,34.7,28.1,11.9,0000.0,0005.03,0002.09,0001.34
2023-04-27 17:06:00,,0824.7,5.00,0.00,26.5,25.2,00.0,34.7,28.1,12.2,0000.0,0004.90,0002.13,0001.34
2023-04-27 17:07:00,,0824.7,4.99,0.00,26.5,25.2,00.0,34.7,28.1,11.5,0000.0,0004.80,0002.12,0001.34
2023-04-27 17:08:00,,0824.7,5.00,0.00,26.5,25.2,00.0,34.8,28.1,11.7,0000.0,0004.83,0002.12,0001.34
2023-04-27 17:09:00,,0824.7,5.01,0.00,26.5,25.2,00.0,34.8,28.2,11.4,0000.0,0004.87,0002.14,0001.34
2023-04-27 17:10:00,,0824.7,4.99,0.00,26.6,25.3,00.0,34.8,28.2,12.2,0000.0,0004.92,0002.18,0001.34
2023-04-27 17:11:00,,0824.8,4.99,0.00,26.6,25.3,00.0,34.8,28.2,11.5,0000.0,0004.02,0002.13,0001.33
2023-04-27 17:12:00,,0824.7,5.01,0.00,26.6,25.3,00.0,34.8,28.2,11.0,0000.0,0004.02,0002.12,0001.32
2023-04-27 17:13:00,,0824.7,5.01,0.00,26.6,25.3,00.0,34.8,28.2,11.2,0000.0,0004.10,0002.11,0001.32
2023-04-27 17:14:00,,0824.7,4.99,0.00,26.6,25.3,00.0,34.9,28.2,11.1,0000.0,0004.11,0002.07,0001.32
2023-04-27 17:15:00,,0824.7,4.98,0.00,26.7,25.4,00.0,34.9,28.1,11.8,0000.0,0004.21,0002.12,0001.32
2023-04-27 17:16:00,,0824.7,5.01,0.00,26.7,25.4,00.0,34.9,28.2,11.0,0000.0,0004.56,0002.18,0001.32
2023-04-27 17:17:00,,0824.7,5.01,0.00,26.7,25.3,00.0,34.9,28.2,10.9,0000.0,0004.65,0002.14,0001.31
2023-04-27 17:18:00,,0824.7,4.99,0.00,26.7,25.3,00.0,34.9,28.2,11.0,0000.0,0004.53,0002.11,0001.31
2023-04-27 17:19:00,,0824.7,5.00,0.00,26.7,25.3,00.0,34.9,28.2,11.0,0000.0,0004.72,0002.12,0001.31
2023-04-27 17:20:00,,0824.7,5.00,0.00,26.7,25.4,00.0,34.9,28.2,11.0,0000.0,0004.77,0002.12,0001.32
2023-04-27 17:21:00,,0824.7,5.00,0.00,26.7,25.4,00.0,35.0,28.3,10.9,0000.0,0004.93,0002.15,0001.33
2023-04-27 17:22:00,,0824.7,5.01,0.00,26.7,25.5,00.0,35.0,28.3,11.5,0000.0,0005.04,0002.17,0001.33
2023-04-27 17:23:00,,0824.6,4.99,0.00,26.8,25.5,00.0,35.0,28.4,10.8,0000.0,0005.06,0002.20,0001.33
2023-04-27 17:24:00,,0824.6,4.99,0.00,26.8,25.6,00.0,35.0,28.4,11.0,0000.0,0004.85,0002.17,0001.32
2023-04-27 17:25:00,,0824.5,5.00,0.00,26.8,25.6,00.0,35.0,28.4,11.7,0000.0,0004.73,0002.17,0001.30
2023-04-27 17:26:00,,0824.5,5.02,0.00,26.8,25.6,00.0,35.0,28.4,12.1,0000.0,0004.76,0002.20,0001.30
2023-04-27 17:27:00,,0824.4,5.00,0.00,26.8,25.6,00.0,35.0,28.4,11.9,0000.0,0004.55,0002.19,0001.31
2023-04-27 17:28:00,,0824.5,4.99,0.00,26.9,25.6,00.0,35.1,28.4,12.8,0000.0,0004.31,0002.17,0001.31
2023-04-27 17:29:00,,0824.4,5.00,0.00,26.9,25.6,00.0,35.1,28.4,11.7,0000.0,0006.99,0002.19,0001.31
2023-04-27 17:30:00,,0824.4,5.00,0.00,26.9,25.6,00.0,35.1,28.4,11.0,0000.0,0007.12,0002.17,0001.30
2023-04-27 17:31:00,,0824.5,5.00,0.00,26.9,25.6,00.0,35.1,28.4,10.8,0000.0,0007.31,0002.23,0001.30
2023-04-27 17:32:00,,0824.6,5.00,0.00,26.9,25.6,00.0,35.1,28.4,11.0,0000.0,0007.27,0002.21,0001.29
2023-04-27 17:33:00,,0824.4,5.00,0.00,26.9,25.6,00.0,35.1,28.5,10.9,0000.0,0007.19,0002.19,0001.28
2023-04-27 17:34:00,,0824.5,5.01,0.00,27.0,25.7,00.0,35.2,28.5,11.9,0000.0,0007.18,0002.17,0001.28
2023-04-27 17:35:00,,0824.4,4.99,0.00,27.0,25.7,00.0,35.2,28.5,12.0,0000.0,0007.19,0002.18,0001.29
2023-04-27 17:36:00,,0824.4,5.00,0.00,27.0,25.7,00.0,35.2,28.5,11.4,0000.0,0007.15,0002.17,0001.30
2023-04-27 17:37:00,,0824.4,5.00,0.00,27.0,25.8,00.0,35.2,28.6,11.0,0000.0,0007.14,0002.14,0001.30
2023-04-27 17:38:00,,0824.4,5.00,0.00,27.0,25.8,00.0,35.2,28.6,11.6,0000.0,0007.28,0002.12,0001.30
2023-04-27 17:39:00,,0824.4,5.00,0.00,27.0,25.8,00.0,35.3,28.6,11.2,0000.0,0007.33,0002.12,0001.30
2023-04-27 17:40:00,,0824.4,5.00,0.00,27.1,25.8,00.0,35.3,28.6,11.1,0000.0,0005.36,0002.13,0001.30
2023-04-27 17:41:00,,0824.4,5.01,0.00,27.1,25.8,00.0,35.3,28.6,10.9,0000.0,0007.28,0002.15,0001.29
2023-04-27 17:42:00,,0824.4,5.01,0.00,27.1,25.8,00.0,35.3,28.6,11.0,0000.0,0007.17,0002.15,0001.28
2023-04-27 17:43:00,,0824.4,5.01,0.00,27.1,25.8,00.0,35.3,28.7,10.9,0000.0,0007.06,0002.12,0001.27
2023-04-27 17:44:00,,0824.4,5.00,0.00,27.1,25.8,00.0,35.3,28.6,10.6,0000.0,0007.04,0002.12,0001.26
2023-04-27 17:45:00,,0824.4,5.00,0.00,27.1,25.8,00.0,35.3,28.7,10.7,0000.0,0007.04,0002.15,0001.26
2023-04-27 17:46:00,,0824.4,4.99,0.00,27.1,25.8,00.0,35.4,28.7,10.7,0000.0,0007.05,0002.14,0001.24
2023-04-27 17:47:00,,0824.4,4.99,0.00,27.1,25.9,00.0,35.4,28.7,11.3,0000.0,0007.10,0002.15,0001.23
2023-04-27 17:48:00,,0824.4,5.02,0.00,27.2,25.9,00.0,35.4,28.7,10.9,0000.0,0007.16,0002.16,0001.22
2023-04-27 17:49:00,,0824.4,5.00,0.00,27.2,25.9,00.0,35.4,28.7,10.7,0000.0,0007.07,0002.12,0001.21
2023-04-27 17:50:00,,0824.4,5.00,0.00,27.2,25.9,00.0,35.4,28.7,10.6,0000.0,0007.04,0002.11,0001.21
2023-04-27 17:51:00,,0824.4,5.00,0.00,27.2,25.9,00.0,35.4,28.7,11.1,0000.0,0006.82,0002.07,0001.20
2023-04-27 17:52:00,,0824.4,5.00,0.00,27.2,25.9,00.0,35.4,28.7,10.9,0000.0,0004.75,0002.04,0001.19
2023-04-27 17:53:00,,0824.4,5.00,0.00,27.2,25.9,00.0,35.5,28.7,11.1,0000.0,0004.64,0002.02,0001.20
2023-04-27 17:54:00,,0824.4,4.99,0.00,27.2,26.0,00.0,35.5,28.8,10.8,0000.0,0004.62,0002.02,0001.21
2023-04-27 17:55:00,,0824.4,5.00,0.00,27.3,26.0,00.0,35.5,28.9,10.6,0000.0,0004.91,0002.07,0001.21
2023-04-27 17:56:00,,0824.4,5.00,0.00,27.3,26.0,00.0,35.5,28.9,10.6,0000.0,0004.80,0002.02,0001.20
2023-04-27 17:57:00,,0824.3,4.99,0.00,27.3,26.1,00.0,35.5,28.9,11.0,0000.0,0005.30,0001.96,0001.19
2023-04-27 17:58:00,,0824.4,5.00,0.00,27.3,26.1,00.0,35.5,28.9,11.3,0000.0,0006.11,0001.97,0001.19
2023-04-27 17:59:00,,0824.4,5.00,0.00,27.3,26.1,00.0,35.6,28.9,11.6,0000.0,0006.18,0001.94,0001.18
